Year,Month,Day,Hour,Minute,Value (Times are PST for barometer in hPa)
2015,12,10,00,00,998.85
2015,12,10,00,01,998.85
2015,12,10,00,02,998.84
2015,12,10,00,03,998.79
2015,12,10,00,04,998.68
2015,12,10,00,05,998.67
2015,12,10,00,06,998.59
2015,12,10,00,07,998.53
2015,12,10,00,08,998.47
2015,12,10,00,09,998.39
2015,12,10,00,10,998.30
2015,12,10,00,11,998.26
2015,12,10,00,12,998.23
2015,12,10,00,13,998.15
2015,12,10,00,14,998.05
2015,12,10,00,15,997.94
2015,12,10,00,16,997.82
2015,12,10,00,17,997.78
2015,12,10,00,18,997.69
2015,12,10,00,19,997.65
2015,12,10,00,20,997.59
2015,12,10,00,21,997.55
2015,12,10,00,22,997.48
2015,12,10,00,23,997.36
2015,12,10,00,24,997.21
2015,12,10,00,25,997.13
2015,12,10,00,26,997.00
2015,12,10,00,27,996.89
2015,12,10,00,28,996.73
2015,12,10,00,29,996.64
2015,12,10,00,30,996.58
2015,12,10,00,31,996.46
2015,12,10,00,32,996.38
2015,12,10,00,33,996.36
2015,12,10,00,34,996.29
2015,12,10,00,35,996.33
2015,12,10,00,36,996.41
2015,12,10,00,37,996.42
2015,12,10,00,38,996.47
2015,12,10,00,39,996.44
2015,12,10,00,40,996.36
2015,12,10,00,41,996.28
2015,12,10,00,42,996.26
2015,12,10,00,43,996.16
2015,12,10,00,44,996.10
2015,12,10,00,45,996.02
2015,12,10,00,46,995.94
2015,12,10,00,47,995.94
2015,12,10,00,48,995.94
2015,12,10,00,49,995.92
2015,12,10,00,50,995.83
2015,12,10,00,51,995.76
2015,12,10,00,52,995.69
2015,12,10,00,53,995.64
2015,12,10,00,54,995.64
2015,12,10,00,55,995.53
2015,12,10,00,56,995.51
2015,12,10,00,57,995.41
2015,12,10,00,58,995.35
2015,12,10,00,59,995.32
2015,12,10,01,00,995.28
2015,12,10,01,01,995.21
2015,12,10,01,02,995.12
2015,12,10,01,03,995.11
2015,12,10,01,04,995.07
2015,12,10,01,05,994.96
2015,12,10,01,06,994.95
2015,12,10,01,07,994.88
2015,12,10,01,08,994.84
2015,12,10,01,09,994.79
2015,12,10,01,10,994.78
2015,12,10,01,11,994.71
2015,12,10,01,12,994.67
2015,12,10,01,13,994.64
2015,12,10,01,14,994.57
2015,12,10,01,15,994.54
2015,12,10,01,16,994.47
2015,12,10,01,17,994.43
2015,12,10,01,18,994.34
2015,12,10,01,19,994.28
2015,12,10,01,20,994.27
2015,12,10,01,21,994.23
2015,12,10,01,22,994.18
2015,12,10,01,23,994.18
2015,12,10,01,24,994.15
2015,12,10,01,25,994.03
2015,12,10,01,26,994.00
2015,12,10,01,27,993.95
2015,12,10,01,28,993.85
2015,12,10,01,29,993.76
2015,12,10,01,30,993.69
2015,12,10,01,31,993.62
2015,12,10,01,32,993.56
2015,12,10,01,33,993.53
2015,12,10,01,34,993.53
2015,12,10,01,35,993.53
2015,12,10,01,36,993.52
2015,12,10,01,37,993.47
2015,12,10,01,38,993.46
2015,12,10,01,39,993.42
2015,12,10,01,40,993.38
2015,12,10,01,41,993.29
2015,12,10,01,42,993.25
2015,12,10,01,43,993.22
2015,12,10,01,44,993.13
2015,12,10,01,45,992.97
2015,12,10,01,46,992.88
2015,12,10,01,47,992.83
2015,12,10,01,48,992.71
2015,12,10,01,49,992.63
2015,12,10,01,50,992.56
2015,12,10,01,51,992.57
2015,12,10,01,52,992.51
2015,12,10,01,53,992.43
2015,12,10,01,54,992.34
2015,12,10,01,55,992.29
2015,12,10,01,56,992.22
2015,12,10,01,57,992.29
2015,12,10,01,58,992.30
2015,12,10,01,59,992.24
2015,12,10,02,00,992.20
2015,12,10,02,01,992.16
2015,12,10,02,02,992.07
2015,12,10,02,03,992.03
2015,12,10,02,04,991.98
2015,12,10,02,05,991.97
2015,12,10,02,06,991.91
2015,12,10,02,07,991.92
2015,12,10,02,08,991.93
2015,12,10,02,09,991.90
2015,12,10,02,10,991.83
2015,12,10,02,11,991.76
2015,12,10,02,12,991.69
2015,12,10,02,13,991.63
2015,12,10,02,14,991.56
2015,12,10,02,15,991.48
2015,12,10,02,16,991.39
2015,12,10,02,17,991.32
2015,12,10,02,18,991.25
2015,12,10,02,19,991.19
2015,12,10,02,20,991.16
2015,12,10,02,21,991.15
2015,12,10,02,22,991.12
2015,12,10,02,23,991.08
2015,12,10,02,24,991.05
2015,12,10,02,25,990.98
2015,12,10,02,26,990.96
2015,12,10,02,27,990.94
2015,12,10,02,28,990.87
2015,12,10,02,29,990.88
2015,12,10,02,30,990.85
2015,12,10,02,31,990.82
2015,12,10,02,32,990.81
2015,12,10,02,33,990.78
2015,12,10,02,34,990.74
2015,12,10,02,35,990.65
2015,12,10,02,36,990.64
2015,12,10,02,37,990.63
2015,12,10,02,38,990.65
2015,12,10,02,39,990.64
2015,12,10,02,40,990.57
2015,12,10,02,41,990.49
2015,12,10,02,42,990.48
2015,12,10,02,43,990.45
2015,12,10,02,44,990.44
2015,12,10,02,45,990.38
2015,12,10,02,46,990.34
2015,12,10,02,47,990.32
2015,12,10,02,48,990.29
2015,12,10,02,49,990.17
2015,12,10,02,50,990.13
2015,12,10,02,51,990.03
2015,12,10,02,52,990.00
2015,12,10,02,53,989.97
2015,12,10,02,54,989.88
2015,12,10,02,55,989.77
2015,12,10,02,56,989.74
2015,12,10,02,57,989.74
2015,12,10,02,58,989.71
2015,12,10,02,59,989.74
2015,12,10,03,00,989.69
2015,12,10,03,01,989.61
2015,12,10,03,02,989.67
2015,12,10,03,03,989.64
2015,12,10,03,04,989.63
2015,12,10,03,05,989.59
2015,12,10,03,06,989.56
2015,12,10,03,07,989.50
2015,12,10,03,08,989.49
2015,12,10,03,09,989.44
2015,12,10,03,10,989.43
2015,12,10,03,11,989.40
2015,12,10,03,12,989.36
2015,12,10,03,13,989.33
2015,12,10,03,14,989.32
2015,12,10,03,15,989.26
2015,12,10,03,16,989.19
2015,12,10,03,17,989.15
2015,12,10,03,18,989.06
2015,12,10,03,19,989.01
2015,12,10,03,20,988.89
2015,12,10,03,21,988.85
2015,12,10,03,22,988.79
2015,12,10,03,23,988.78
2015,12,10,03,24,988.75
2015,12,10,03,25,988.71
2015,12,10,03,26,988.66
2015,12,10,03,27,988.65
2015,12,10,03,28,988.58
2015,12,10,03,29,988.49
2015,12,10,03,30,988.48
2015,12,10,03,31,988.41
2015,12,10,03,32,988.31
2015,12,10,03,33,988.28
2015,12,10,03,34,988.25
2015,12,10,03,35,988.25
2015,12,10,03,36,988.25
2015,12,10,03,37,988.25
2015,12,10,03,38,988.27
2015,12,10,03,39,988.20
2015,12,10,03,40,988.10
2015,12,10,03,41,988.05
2015,12,10,03,42,988.04
2015,12,10,03,43,988.00
2015,12,10,03,44,987.94
2015,12,10,03,45,987.89
2015,12,10,03,46,987.75
2015,12,10,03,47,987.81
2015,12,10,03,48,987.80
2015,12,10,03,49,987.73
2015,12,10,03,50,987.66
2015,12,10,03,51,987.63
2015,12,10,03,52,987.55
2015,12,10,03,53,987.46
2015,12,10,03,54,987.43
2015,12,10,03,55,987.36
2015,12,10,03,56,987.33
2015,12,10,03,57,987.29
2015,12,10,03,58,987.21
2015,12,10,03,59,987.13
2015,12,10,04,00,987.14
2015,12,10,04,01,987.14
2015,12,10,04,02,987.01
2015,12,10,04,03,986.89
2015,12,10,04,05,986.85
2015,12,10,04,06,986.82
2015,12,10,04,07,986.76
2015,12,10,04,08,986.66
2015,12,10,04,09,986.55
2015,12,10,04,10,986.54
2015,12,10,04,11,986.60
2015,12,10,04,12,986.62
2015,12,10,04,13,986.62
2015,12,10,04,14,986.66
2015,12,10,04,15,986.77
2015,12,10,04,16,986.77
2015,12,10,04,17,986.73
2015,12,10,04,18,986.71
2015,12,10,04,19,986.63
2015,12,10,04,20,986.58
2015,12,10,04,21,986.60
2015,12,10,04,22,986.60
2015,12,10,04,23,986.75
2015,12,10,04,24,986.89
2015,12,10,04,25,986.80
2015,12,10,04,26,986.67
2015,12,10,04,27,986.75
2015,12,10,04,28,986.87
2015,12,10,04,29,986.78
2015,12,10,04,30,986.77
2015,12,10,04,31,986.79
2015,12,10,04,32,986.77
2015,12,10,04,33,986.71
2015,12,10,04,34,986.71
2015,12,10,04,35,986.85
2015,12,10,04,36,986.90
2015,12,10,04,37,986.87
2015,12,10,04,38,986.78
2015,12,10,04,39,986.74
2015,12,10,04,40,986.71
2015,12,10,04,41,986.76
2015,12,10,04,42,986.76
2015,12,10,04,43,986.74
2015,12,10,04,44,986.67
2015,12,10,04,45,986.59
2015,12,10,04,46,986.56
2015,12,10,04,47,986.67
2015,12,10,04,48,986.68
2015,12,10,04,49,986.63
2015,12,10,04,50,986.56
2015,12,10,04,51,986.57
2015,12,10,04,52,986.57
2015,12,10,04,53,986.52
2015,12,10,04,54,986.51
2015,12,10,04,55,986.52
2015,12,10,04,56,986.61
2015,12,10,04,57,986.60
2015,12,10,04,58,986.60
2015,12,10,04,59,986.57
2015,12,10,05,00,986.59
2015,12,10,05,01,986.58
2015,12,10,05,02,986.57
2015,12,10,05,03,986.58
2015,12,10,05,04,986.59
2015,12,10,05,05,986.68
2015,12,10,05,06,986.66
2015,12,10,05,07,986.67
2015,12,10,05,08,986.68
2015,12,10,05,09,986.69
2015,12,10,05,10,986.73
2015,12,10,05,11,986.65
2015,12,10,05,12,986.62
2015,12,10,05,13,986.62
2015,12,10,05,14,986.62
2015,12,10,05,15,986.62
2015,12,10,05,16,986.62
2015,12,10,05,17,986.63
2015,12,10,05,18,986.65
2015,12,10,05,19,986.62
2015,12,10,05,20,986.62
2015,12,10,05,21,986.62
2015,12,10,05,22,986.64
2015,12,10,05,23,986.68
2015,12,10,05,24,986.65
2015,12,10,05,25,986.63
2015,12,10,05,26,986.68
2015,12,10,05,27,986.70
2015,12,10,05,28,986.61
2015,12,10,05,29,986.60
2015,12,10,05,30,986.62
2015,12,10,05,31,986.60
2015,12,10,05,32,986.54
2015,12,10,05,33,986.49
2015,12,10,05,34,986.48
2015,12,10,05,35,986.47
2015,12,10,05,36,986.49
2015,12,10,05,37,986.49
2015,12,10,05,38,986.51
2015,12,10,05,39,986.55
2015,12,10,05,40,986.52
2015,12,10,05,41,986.49
2015,12,10,05,42,986.45
2015,12,10,05,43,986.50
2015,12,10,05,44,986.46
2015,12,10,05,45,986.48
2015,12,10,05,46,986.51
2015,12,10,05,47,986.47
2015,12,10,05,48,986.44
2015,12,10,05,49,986.48
2015,12,10,05,50,986.46
2015,12,10,05,51,986.45
2015,12,10,05,52,986.42
2015,12,10,05,53,986.35
2015,12,10,05,54,986.20
2015,12,10,05,55,986.24
2015,12,10,05,56,986.22
2015,12,10,05,57,986.20
2015,12,10,05,58,986.15
2015,12,10,05,59,986.13
2015,12,10,06,00,986.07
2015,12,10,06,01,986.02
2015,12,10,06,02,985.92
2015,12,10,06,03,985.85
2015,12,10,06,04,985.83
2015,12,10,06,05,985.76
2015,12,10,06,06,985.70
2015,12,10,06,07,985.66
2015,12,10,06,08,985.60
2015,12,10,06,09,985.56
2015,12,10,06,10,985.55
2015,12,10,06,11,985.57
2015,12,10,06,12,985.56
2015,12,10,06,13,985.53
2015,12,10,06,14,985.52
2015,12,10,06,15,985.51
2015,12,10,06,16,985.43
2015,12,10,06,17,985.42
2015,12,10,06,18,985.42
2015,12,10,06,19,985.39
2015,12,10,06,20,985.43
2015,12,10,06,21,985.43
2015,12,10,06,22,985.46
2015,12,10,06,23,985.45
2015,12,10,06,24,985.47
2015,12,10,06,25,985.46
2015,12,10,06,26,985.43
2015,12,10,06,27,985.42
2015,12,10,06,28,985.43
2015,12,10,06,29,985.40
2015,12,10,06,30,985.37
2015,12,10,06,31,985.38
2015,12,10,06,32,985.38
2015,12,10,06,33,985.32
2015,12,10,06,34,985.38
2015,12,10,06,35,985.37
2015,12,10,06,36,985.28
2015,12,10,06,37,985.29
2015,12,10,06,38,985.25
2015,12,10,06,39,985.20
2015,12,10,06,40,985.19
2015,12,10,06,41,985.15
2015,12,10,06,42,985.10
2015,12,10,06,43,985.09
2015,12,10,06,44,985.07
2015,12,10,06,45,985.05
2015,12,10,06,46,984.98
2015,12,10,06,47,984.92
2015,12,10,06,48,984.89
2015,12,10,06,49,984.84
2015,12,10,06,50,984.79
2015,12,10,06,51,984.73
2015,12,10,06,52,984.65
2015,12,10,06,53,984.62
2015,12,10,06,54,984.57
2015,12,10,06,55,984.52
2015,12,10,06,56,984.51
2015,12,10,06,57,984.52
2015,12,10,06,58,984.40
2015,12,10,06,59,984.41
2015,12,10,07,00,984.38
2015,12,10,07,01,984.34
2015,12,10,07,02,984.30
2015,12,10,07,03,984.33
2015,12,10,07,04,984.35
2015,12,10,07,05,984.29
2015,12,10,07,06,984.24
2015,12,10,07,07,984.26
2015,12,10,07,08,984.20
2015,12,10,07,09,984.21
2015,12,10,07,10,984.18
2015,12,10,07,11,984.15
2015,12,10,07,12,984.13
2015,12,10,07,13,984.09
2015,12,10,07,14,984.10
2015,12,10,07,15,984.05
2015,12,10,07,16,984.04
2015,12,10,07,17,984.01
2015,12,10,07,18,983.99
2015,12,10,07,19,984.00
2015,12,10,07,20,983.93
2015,12,10,07,21,983.88
2015,12,10,07,22,983.88
2015,12,10,07,23,983.86
2015,12,10,07,24,983.81
2015,12,10,07,25,983.81
2015,12,10,07,26,983.81
2015,12,10,07,27,983.81
2015,12,10,07,28,983.80
2015,12,10,07,29,983.77
2015,12,10,07,30,983.75
2015,12,10,07,31,983.75
2015,12,10,07,32,983.73
2015,12,10,07,33,983.70
2015,12,10,07,34,983.74
2015,12,10,07,35,983.70
2015,12,10,07,36,983.67
2015,12,10,07,37,983.62
2015,12,10,07,38,983.58
2015,12,10,07,39,983.55
2015,12,10,07,40,983.49
2015,12,10,07,41,983.51
2015,12,10,07,42,983.50
2015,12,10,07,43,983.47
2015,12,10,07,44,983.45
2015,12,10,07,45,983.49
2015,12,10,07,46,983.48
2015,12,10,07,47,983.41
2015,12,10,07,48,983.41
2015,12,10,07,49,983.38
2015,12,10,07,50,983.30
2015,12,10,07,51,983.25
2015,12,10,07,52,983.21
2015,12,10,07,53,983.21
2015,12,10,07,54,983.15
2015,12,10,07,55,983.15
2015,12,10,07,56,983.10
2015,12,10,07,57,983.07
2015,12,10,07,58,983.00
2015,12,10,07,59,983.01
2015,12,10,08,00,983.01
2015,12,10,08,01,982.93
2015,12,10,08,02,982.92
2015,12,10,08,03,982.87
2015,12,10,08,04,982.86
2015,12,10,08,05,982.81
2015,12,10,08,06,982.76
2015,12,10,08,07,982.75
2015,12,10,08,08,982.74
2015,12,10,08,09,982.74
2015,12,10,08,10,982.68
2015,12,10,08,11,982.64
2015,12,10,08,12,982.66
2015,12,10,08,13,982.65
2015,12,10,08,14,982.63
2015,12,10,08,15,982.63
2015,12,10,08,16,982.62
2015,12,10,08,17,982.59
2015,12,10,08,18,982.58
2015,12,10,08,19,982.56
2015,12,10,08,20,982.56
2015,12,10,08,21,982.58
2015,12,10,08,22,982.64
2015,12,10,08,23,982.58
2015,12,10,08,24,982.52
2015,12,10,08,25,982.50
2015,12,10,08,26,982.53
2015,12,10,08,27,982.51
2015,12,10,08,28,982.43
2015,12,10,08,29,982.42
2015,12,10,08,30,982.37
2015,12,10,08,31,982.31
2015,12,10,08,32,982.29
2015,12,10,08,33,982.30
2015,12,10,08,34,982.31
2015,12,10,08,35,982.30
2015,12,10,08,36,982.31
2015,12,10,08,37,982.29
2015,12,10,08,38,982.27
2015,12,10,08,39,982.23
2015,12,10,08,40,982.25
2015,12,10,08,41,982.20
2015,12,10,08,42,982.15
2015,12,10,08,43,982.14
2015,12,10,08,44,982.13
2015,12,10,08,45,982.13
2015,12,10,08,46,982.04
2015,12,10,08,47,982.01
2015,12,10,08,48,981.99
2015,12,10,08,49,981.98
2015,12,10,08,50,981.95
2015,12,10,08,51,981.92
2015,12,10,08,52,981.85
2015,12,10,08,53,981.82
2015,12,10,08,54,981.75
2015,12,10,08,55,981.74
2015,12,10,08,56,981.72
2015,12,10,08,57,981.74
2015,12,10,08,58,981.71
2015,12,10,08,59,981.70
2015,12,10,09,00,981.64
2015,12,10,09,01,981.61
2015,12,10,09,02,981.60
2015,12,10,09,03,981.54
2015,12,10,09,04,981.49
2015,12,10,09,05,981.46
2015,12,10,09,06,981.50
2015,12,10,09,07,981.47
2015,12,10,09,08,981.44
2015,12,10,09,09,981.45
2015,12,10,09,10,981.47
2015,12,10,09,11,981.42
2015,12,10,09,12,981.39
2015,12,10,09,13,981.43
2015,12,10,09,14,981.46
2015,12,10,09,15,981.43
2015,12,10,09,16,981.46
2015,12,10,09,17,981.41
2015,12,10,09,18,981.41
2015,12,10,09,19,981.42
2015,12,10,09,20,981.43
2015,12,10,09,21,981.40
2015,12,10,09,22,981.37
2015,12,10,09,23,981.35
2015,12,10,09,24,981.37
2015,12,10,09,25,981.35
2015,12,10,09,26,981.36
2015,12,10,09,27,981.33
2015,12,10,09,28,981.35
2015,12,10,09,29,981.28
2015,12,10,09,30,981.29
2015,12,10,09,31,981.25
2015,12,10,09,32,981.28
2015,12,10,09,33,981.28
2015,12,10,09,34,981.24
2015,12,10,09,35,981.28
2015,12,10,09,36,981.20
2015,12,10,09,37,981.18
2015,12,10,09,38,981.19
2015,12,10,09,39,981.17
2015,12,10,09,40,981.22
2015,12,10,09,41,981.17
2015,12,10,09,42,981.18
2015,12,10,09,43,981.20
2015,12,10,09,44,981.16
2015,12,10,09,45,981.15
2015,12,10,09,46,981.18
2015,12,10,09,47,981.20
2015,12,10,09,48,981.18
2015,12,10,09,49,981.21
2015,12,10,09,50,981.23
2015,12,10,09,51,981.24
2015,12,10,09,52,981.19
2015,12,10,09,53,981.22
2015,12,10,09,54,981.18
2015,12,10,09,55,981.22
2015,12,10,09,56,981.25
2015,12,10,09,57,981.29
2015,12,10,09,58,981.34
2015,12,10,09,59,981.31
2015,12,10,10,00,981.26
2015,12,10,10,01,981.31
2015,12,10,10,02,981.32
2015,12,10,10,03,981.33
2015,12,10,10,04,981.32
2015,12,10,10,05,981.32
2015,12,10,10,06,981.31
2015,12,10,10,07,981.42
2015,12,10,10,08,981.33
2015,12,10,10,09,981.31
2015,12,10,10,10,981.29
2015,12,10,10,11,981.26
2015,12,10,10,12,981.28
2015,12,10,10,13,981.24
2015,12,10,10,14,981.28
2015,12,10,10,15,981.22
2015,12,10,10,16,981.22
2015,12,10,10,17,981.18
2015,12,10,10,18,981.21
2015,12,10,10,19,981.22
2015,12,10,10,20,981.26
2015,12,10,10,21,981.21
2015,12,10,10,22,981.22
2015,12,10,10,23,981.26
2015,12,10,10,24,981.29
2015,12,10,10,25,981.24
2015,12,10,10,26,981.23
2015,12,10,10,27,981.22
2015,12,10,10,28,981.22
2015,12,10,10,29,981.18
2015,12,10,10,30,981.21
2015,12,10,10,31,981.21
2015,12,10,10,32,981.19
2015,12,10,10,33,981.15
2015,12,10,10,34,981.18
2015,12,10,10,35,981.19
2015,12,10,10,36,981.16
2015,12,10,10,37,981.22
2015,12,10,10,38,981.17
2015,12,10,10,39,981.15
2015,12,10,10,40,981.08
2015,12,10,10,41,981.10
2015,12,10,10,42,981.09
2015,12,10,10,43,981.05
2015,12,10,10,44,981.05
2015,12,10,10,45,981.01
2015,12,10,10,46,981.02
2015,12,10,10,47,980.97
2015,12,10,10,48,980.98
2015,12,10,10,49,980.99
2015,12,10,10,50,980.96
2015,12,10,10,51,980.94
2015,12,10,10,52,980.94
2015,12,10,10,53,980.94
2015,12,10,10,54,980.95
2015,12,10,10,55,980.96
2015,12,10,10,56,980.94
2015,12,10,10,57,980.95
2015,12,10,10,58,980.97
2015,12,10,10,59,980.96
2015,12,10,11,00,980.94
2015,12,10,11,01,980.94
2015,12,10,11,02,980.92
2015,12,10,11,03,980.87
2015,12,10,11,04,980.85
2015,12,10,11,05,980.78
2015,12,10,11,06,980.74
2015,12,10,11,07,980.76
2015,12,10,11,08,980.74
2015,12,10,11,09,980.77
2015,12,10,11,10,980.76
2015,12,10,11,11,980.73
2015,12,10,11,12,980.72
2015,12,10,11,13,980.70
2015,12,10,11,14,980.70
2015,12,10,11,15,980.68
2015,12,10,11,16,980.62
2015,12,10,11,17,980.61
2015,12,10,11,18,980.63
2015,12,10,11,19,980.62
2015,12,10,11,20,980.61
2015,12,10,11,21,980.62
2015,12,10,11,22,980.60
2015,12,10,11,23,980.59
2015,12,10,11,24,980.56
2015,12,10,11,25,980.56
2015,12,10,11,26,980.56
2015,12,10,11,27,980.56
2015,12,10,11,28,980.61
2015,12,10,11,29,980.74
2015,12,10,11,30,980.65
2015,12,10,11,31,980.61
2015,12,10,11,32,980.58
2015,12,10,11,33,980.65
2015,12,10,11,34,980.58
2015,12,10,11,35,980.52
2015,12,10,11,36,980.57
2015,12,10,11,37,980.48
2015,12,10,11,38,980.51
2015,12,10,11,39,980.48
2015,12,10,11,40,980.51
2015,12,10,11,41,980.46
2015,12,10,11,42,980.46
2015,12,10,11,43,980.44
2015,12,10,11,44,980.38
2015,12,10,11,45,980.39
2015,12,10,11,46,980.48
2015,12,10,11,47,980.45
2015,12,10,11,48,980.49
2015,12,10,11,49,980.39
2015,12,10,11,50,980.37
2015,12,10,11,51,980.29
2015,12,10,11,52,980.29
2015,12,10,11,53,980.31
2015,12,10,11,54,980.33
2015,12,10,11,55,980.23
2015,12,10,11,56,980.28
2015,12,10,11,57,980.34
2015,12,10,11,58,980.38
2015,12,10,11,59,980.35
2015,12,10,12,00,980.33
2015,12,10,12,01,980.33
2015,12,10,12,02,980.33
2015,12,10,12,03,980.35
2015,12,10,12,04,980.41
2015,12,10,12,05,980.36
2015,12,10,12,06,980.35
2015,12,10,12,07,980.35
2015,12,10,12,08,980.41
2015,12,10,12,09,980.35
2015,12,10,12,10,980.33
2015,12,10,12,11,980.33
2015,12,10,12,12,980.35
2015,12,10,12,13,980.40
2015,12,10,12,14,980.30
2015,12,10,12,15,980.34
2015,12,10,12,16,980.38
2015,12,10,12,17,980.34
2015,12,10,12,18,980.36
2015,12,10,12,19,980.34
2015,12,10,12,20,980.28
2015,12,10,12,21,980.31
2015,12,10,12,22,980.24
2015,12,10,12,23,980.29
2015,12,10,12,24,980.29
2015,12,10,12,25,980.31
2015,12,10,12,26,980.35
2015,12,10,12,27,980.35
2015,12,10,12,28,980.42
2015,12,10,12,29,980.40
2015,12,10,12,30,980.42
2015,12,10,12,31,980.38
2015,12,10,12,32,980.39
2015,12,10,12,33,980.50
2015,12,10,12,34,980.51
2015,12,10,12,35,980.50
2015,12,10,12,36,980.41
2015,12,10,12,37,980.51
2015,12,10,12,38,980.54
2015,12,10,12,39,980.45
2015,12,10,12,40,980.43
2015,12,10,12,41,980.45
2015,12,10,12,42,980.47
2015,12,10,12,43,980.38
2015,12,10,12,44,980.45
2015,12,10,12,45,980.51
2015,12,10,12,46,980.45
2015,12,10,12,47,980.52
2015,12,10,12,48,980.51
2015,12,10,12,49,980.52
2015,12,10,12,50,980.50
2015,12,10,12,51,980.50
2015,12,10,12,52,980.48
2015,12,10,12,53,980.42
2015,12,10,12,54,980.52
2015,12,10,12,55,980.47
2015,12,10,12,56,980.52
2015,12,10,12,57,980.53
2015,12,10,12,58,980.61
2015,12,10,12,59,980.55
2015,12,10,13,00,980.62
2015,12,10,13,01,980.60
2015,12,10,13,02,980.64
2015,12,10,13,03,980.78
2015,12,10,13,04,980.72
2015,12,10,13,05,980.77
2015,12,10,13,06,980.78
2015,12,10,13,07,980.85
2015,12,10,13,08,980.88
2015,12,10,13,09,980.85
2015,12,10,13,10,980.92
2015,12,10,13,11,980.89
2015,12,10,13,12,980.95
2015,12,10,13,13,981.00
2015,12,10,13,14,981.00
2015,12,10,13,15,980.99
2015,12,10,13,16,980.99
2015,12,10,13,17,981.05
2015,12,10,13,18,981.08
2015,12,10,13,19,981.11
2015,12,10,13,20,981.17
2015,12,10,13,21,981.18
2015,12,10,13,22,981.22
2015,12,10,13,23,981.26
2015,12,10,13,24,981.32
2015,12,10,13,25,981.26
2015,12,10,13,26,981.28
2015,12,10,13,27,981.41
2015,12,10,13,28,981.41
2015,12,10,13,29,981.43
2015,12,10,13,30,981.46
2015,12,10,13,31,981.41
2015,12,10,13,32,981.53
2015,12,10,13,33,981.57
2015,12,10,13,34,981.44
2015,12,10,13,35,981.54
2015,12,10,13,36,981.51
2015,12,10,13,37,981.50
2015,12,10,13,38,981.47
2015,12,10,13,39,981.45
2015,12,10,13,40,981.50
2015,12,10,13,41,981.55
2015,12,10,13,42,981.56
2015,12,10,13,43,981.61
2015,12,10,13,44,981.61
2015,12,10,13,45,981.60
2015,12,10,13,46,981.60
2015,12,10,13,47,981.69
2015,12,10,13,48,981.73
2015,12,10,13,49,981.76
2015,12,10,13,50,981.71
2015,12,10,13,51,981.72
2015,12,10,13,52,981.77
2015,12,10,13,53,981.82
2015,12,10,13,54,981.81
2015,12,10,13,55,981.79
2015,12,10,13,56,981.83
2015,12,10,13,57,981.85
2015,12,10,13,58,981.84
2015,12,10,13,59,981.77
2015,12,10,14,00,981.73
2015,12,10,14,01,981.80
2015,12,10,14,02,981.77
2015,12,10,14,03,981.80
2015,12,10,14,04,981.74
2015,12,10,14,05,981.73
2015,12,10,14,06,981.80
2015,12,10,14,07,981.86
2015,12,10,14,08,981.88
2015,12,10,14,09,981.87
2015,12,10,14,10,981.85
2015,12,10,14,11,981.84
2015,12,10,14,12,981.81
2015,12,10,14,13,981.76
2015,12,10,14,14,981.70
2015,12,10,14,15,981.79
2015,12,10,14,16,981.83
2015,12,10,14,17,981.89
2015,12,10,14,18,981.98
2015,12,10,14,19,982.13
2015,12,10,14,20,982.16
2015,12,10,14,21,982.20
2015,12,10,14,22,982.21
2015,12,10,14,23,982.16
2015,12,10,14,24,982.18
2015,12,10,14,25,982.16
2015,12,10,14,26,982.18
2015,12,10,14,27,982.18
2015,12,10,14,28,982.29
2015,12,10,14,29,982.28
2015,12,10,14,30,982.25
2015,12,10,14,31,982.22
2015,12,10,14,32,982.22
2015,12,10,14,33,982.23
2015,12,10,14,34,982.24
2015,12,10,14,35,982.21
2015,12,10,14,36,982.26
2015,12,10,14,37,982.16
2015,12,10,14,38,982.21
2015,12,10,14,39,982.24
2015,12,10,14,40,982.15
2015,12,10,14,41,982.04
2015,12,10,14,42,982.15
2015,12,10,14,43,982.29
2015,12,10,14,44,982.40
2015,12,10,14,45,982.45
2015,12,10,14,46,982.52
2015,12,10,14,47,982.48
2015,12,10,14,48,982.46
2015,12,10,14,49,982.47
2015,12,10,14,50,982.50
2015,12,10,14,51,982.55
2015,12,10,14,52,982.61
2015,12,10,14,53,982.48
2015,12,10,14,54,982.30
2015,12,10,14,55,982.21
2015,12,10,14,56,982.20
2015,12,10,14,57,982.22
2015,12,10,14,58,982.22
2015,12,10,14,59,982.26
2015,12,10,15,00,982.39
2015,12,10,15,01,982.42
2015,12,10,15,02,982.56
2015,12,10,15,03,982.65
2015,12,10,15,04,982.62
2015,12,10,15,05,982.59
2015,12,10,15,06,982.61
2015,12,10,15,07,982.65
2015,12,10,15,08,982.64
2015,12,10,15,09,982.65
2015,12,10,15,10,982.66
2015,12,10,15,11,982.77
2015,12,10,15,12,982.81
2015,12,10,15,13,982.88
2015,12,10,15,14,982.90
2015,12,10,15,15,982.92
2015,12,10,15,16,982.99
2015,12,10,15,17,982.93
2015,12,10,15,18,982.94
2015,12,10,15,19,982.98
2015,12,10,15,20,983.02
2015,12,10,15,21,983.11
2015,12,10,15,22,983.20
2015,12,10,15,23,983.34
2015,12,10,15,24,983.35
2015,12,10,15,25,983.42
2015,12,10,15,26,983.45
2015,12,10,15,27,983.47
2015,12,10,15,28,983.45
2015,12,10,15,29,983.48
2015,12,10,15,30,983.48
2015,12,10,15,31,983.45
2015,12,10,15,32,983.35
2015,12,10,15,33,983.40
2015,12,10,15,34,983.38
2015,12,10,15,35,983.43
2015,12,10,15,36,983.41
2015,12,10,15,37,983.43
2015,12,10,15,38,983.52
2015,12,10,15,39,983.56
2015,12,10,15,40,983.65
2015,12,10,15,41,983.72
2015,12,10,15,42,983.79
2015,12,10,15,43,983.81
2015,12,10,15,44,983.81
2015,12,10,15,45,983.82
2015,12,10,15,46,983.86
2015,12,10,15,47,983.88
2015,12,10,15,48,983.88
2015,12,10,15,49,983.88
2015,12,10,15,50,983.86
2015,12,10,15,51,983.80
2015,12,10,15,52,983.78
2015,12,10,15,53,983.78
2015,12,10,15,54,983.79
2015,12,10,15,55,983.83
2015,12,10,15,56,983.93
2015,12,10,15,57,983.98
2015,12,10,15,58,983.98
2015,12,10,15,59,984.01
2015,12,10,16,00,984.16
2015,12,10,16,01,984.22
2015,12,10,16,02,984.24
2015,12,10,16,03,984.33
2015,12,10,16,04,984.40
2015,12,10,16,05,984.43
2015,12,10,16,06,984.46
2015,12,10,16,07,984.47
2015,12,10,16,08,984.50
2015,12,10,16,09,984.53
2015,12,10,16,10,984.54
2015,12,10,16,11,984.59
2015,12,10,16,12,984.75
2015,12,10,16,13,984.83
2015,12,10,16,14,984.82
2015,12,10,16,15,984.77
2015,12,10,16,16,984.81
2015,12,10,16,17,984.88
2015,12,10,16,18,984.98
2015,12,10,16,19,985.01
2015,12,10,16,20,985.04
2015,12,10,16,21,985.07
2015,12,10,16,22,985.09
2015,12,10,16,23,985.18
2015,12,10,16,24,985.25
2015,12,10,16,25,985.29
2015,12,10,16,26,985.38
2015,12,10,16,27,985.42
2015,12,10,16,28,985.45
2015,12,10,16,29,985.52
2015,12,10,16,30,985.54
2015,12,10,16,31,985.55
2015,12,10,16,32,985.63
2015,12,10,16,33,985.71
2015,12,10,16,34,985.74
2015,12,10,16,35,985.89
2015,12,10,16,36,985.96
2015,12,10,16,37,986.01